map of TMJ home
TMJ - Airport
Location
City:  Termez, Surxondaryo, Uzbekistan
Name:Termez Airport
ICAO:UTST
IATA:TMJ

Details
Type:Airport (Aerodrome, Airfield)
Use:Public/Civil
Latitude:3717'12"N (37.286667)
Longitude:6718'36"E (67.310000)
Elevation:1027 ft (313 m)
Variation:4.24E (WMM2015v2 magnetic declination)
0.06 annual change
Runways:1
Longest:9843 × 138 ft (3000 × 42 m), paved

Time
Time Zone:UTC+5
Local Time:

Weather
METAR:UTST 041400Z 27006KT 9999 -SHRA OVC056CB 11/08 Q1016 R88/CLRD70 NOSIG
TAF:UTST 031700Z 0318/0418 VRB06KT 5000 -SHRA BR SCT006 BKN050CB BKN100
TEMPO 0318/0405 29012G22KT 1500 TSRA BR BKN002 OVC040CB
TEMPO 0405/0416 26017G27KT 1000 TSRA DS BKN002 OVC033CB

Related Locations
Nearby:
Farthest:IPC: 11708 mi / 18842 km
Easter Island (Isla de Pascua, Rapa Nui) [Mataveri Intl], VS, CL

Find:

   beyond  
but within

Other Information
Maps:
NOTAMs:
Links:
Sources:

  
  • flag of Uzbekistan
  

Sectional Chart

Flight Planning
at skyvector.com

Satellite Image

Google Maps Satellite view

 

Copyright © 2004-2019 Karl L. Swartz. All rights reserved.
The Great Circle Mapper name and logo are trademarks of the Great Circle Mapper.
All other trademarks mentioned herein belong to their respective owners.
Please see credits for attibutions and further copyright information.

  Follow gcmap on Facebook Follow gcmap on Twitter GCmap on LinkedIn

hCard Microformat

Geo Microformat